When you browse on this site, cookies collect data to enhance your experience and personalize the content and advertising you see.
Visit our Privacy Policy to learn more. By continuing to use the site, you agree to this use of cookies and data.
  • In Switzerland
  • List of Countries
  • For 7 days
  • Water Temperature
  • Weather Map
  • Weather Widgets
  • user-avatar
    Login

    Hourly Weather Norfolk

    Today, 19 January, Sunday

    Time Temperature Precipitation Wind Pressure Humidity
    00:00 +12°C° 0.8 mm 7 mps 760 mmHg 91%
    01:00 +12°C° 0.8 mm 7 mps 759 mmHg 90%
    02:00 +12°C° 0.1 mm 7 mps 759 mmHg 90%
    03:00 +12°C° 0.1 mm 7 mps 758 mmHg 89%
    04:00 +13°C° 0.1 mm 6 mps 757 mmHg 88%
    05:00 +13°C° 0 mm 6 mps 757 mmHg 87%
    06:00 +13°C° 0 mm 6 mps 757 mmHg 86%
    07:00 +13°C° 0 mm 6 mps 757 mmHg 85%
    08:00 +10°C° 0 mm 6 mps 758 mmHg 75%
    09:00 +9°C° 0 mm 7 mps 758 mmHg 65%
    10:00 +7°C° 0 mm 8 mps 759 mmHg 55%
    11:00 +7°C° 0 mm 8 mps 759 mmHg 50%
    12:00 +8°C° 0 mm 7 mps 759 mmHg 45%
    13:00 +6°C° 0 mm 7 mps 759 mmHg 41%
    14:00 +6°C° 0 mm 7 mps 759 mmHg 41%
    15:00 +5°C° 0 mm 7 mps 760 mmHg 42%
    16:00 +5°C° 0 mm 7 mps 760 mmHg 43%
    17:00 +4°C° 0 mm 7 mps 761 mmHg 46%
    18:00 +3°C° 0 mm 6 mps 762 mmHg 50%
    19:00 +2°C° 0 mm 6 mps 762 mmHg 53%
    20:00 +1°C° 0 mm 6 mps 763 mmHg 54%
    21:00 -1°C° 0 mm 6 mps 763 mmHg 55%
    22:00 -2°C° 0 mm 7 mps 764 mmHg 56%
    23:00 -2°C° 0 mm 7 mps 764 mmHg 55%

    Tomorrow, 20 January, Monday

    Time Temperature Precipitation Wind Pressure Humidity
    00:00 -3°C° 0 mm 7 mps 765 mmHg 54%
    01:00 -4°C° 0 mm 7 mps 765 mmHg 52%
    02:00 -4°C° 0 mm 7 mps 765 mmHg 52%
    03:00 -4°C° 0 mm 7 mps 765 mmHg 52%
    04:00 -6°C° 0 mm 7 mps 765 mmHg 51%
    05:00 -6°C° 0 mm 7 mps 766 mmHg 51%
    06:00 -6°C° 0 mm 7 mps 766 mmHg 50%
    07:00 -6°C° 0 mm 7 mps 767 mmHg 50%
    08:00 -6°C° 0 mm 7 mps 768 mmHg 49%
    09:00 -4°C° 0 mm 7 mps 768 mmHg 48%
    10:00 -4°C° 0 mm 7 mps 768 mmHg 48%
    11:00 -3°C° 0 mm 7 mps 768 mmHg 46%
    12:00 -2°C° 0 mm 6 mps 768 mmHg 44%
    13:00 -2°C° 0 mm 6 mps 768 mmHg 42%
    14:00 -1°C° 0 mm 6 mps 768 mmHg 41%
    15:00 -1°C° 0 mm 6 mps 768 mmHg 40%
    16:00 -1°C° 0 mm 6 mps 768 mmHg 39%
    17:00 -2°C° 0 mm 6 mps 769 mmHg 42%
    18:00 -2°C° 0 mm 6 mps 769 mmHg 45%
    19:00 -3°C° 0 mm 6 mps 770 mmHg 47%
    20:00 -3°C° 0 mm 6 mps 770 mmHg 50%
    21:00 -3°C° 0 mm 6 mps 770 mmHg 52%
    22:00 -4°C° 0 mm 6 mps 770 mmHg 54%
    23:00 -4°C° 0 mm 6 mps 770 mmHg 54%

    Day after tomorrow, 21 January, Tuesday

    Time Temperature Precipitation Wind Pressure Humidity
    00:00 -4°C° 0 mm 6 mps 770 mmHg 54%
    01:00 -4°C° 0 mm 6 mps 770 mmHg 54%
    02:00 -4°C° 0 mm 6 mps 770 mmHg 55%
    03:00 -4°C° 0 mm 6 mps 770 mmHg 55%
    04:00 -4°C° 0 mm 6 mps 770 mmHg 56%
    05:00 -5°C° 0 mm 6 mps 770 mmHg 56%
    06:00 -5°C° 0 mm 6 mps 771 mmHg 57%
    07:00 -5°C° 0 mm 5 mps 771 mmHg 57%
    08:00 -5°C° 0 mm 6 mps 771 mmHg 55%
    09:00 -4°C° 0 mm 6 mps 771 mmHg 53%
    10:00 -3°C° 0 mm 6 mps 771 mmHg 51%
    11:00 -3°C° 0 mm 6 mps 771 mmHg 49%
    12:00 -2°C° 0 mm 6 mps 771 mmHg 48%
    13:00 -1°C° 0 mm 6 mps 770 mmHg 47%
    14:00 -1°C° 0 mm 6 mps 770 mmHg 48%
    15:00 -1°C° 0 mm 6 mps 770 mmHg 49%
    16:00 -1°C° 0 mm 6 mps 770 mmHg 50%
    17:00 -2°C° 0 mm 6 mps 770 mmHg 52%
    18:00 -2°C° 0 mm 6 mps 771 mmHg 54%
    19:00 -3°C° 0 mm 6 mps 771 mmHg 57%
    20:00 -3°C° 0 mm 6 mps 771 mmHg 58%
    21:00 -3°C° 0 mm 6 mps 771 mmHg 59%
    22:00 -3°C° 0 mm 6 mps 771 mmHg 61%
    23:00 -3°C° 0 mm 6 mps 771 mmHg 63%

    22 January, Wednesday

    Time Temperature Precipitation Wind Pressure Humidity
    00:00 -3°C° 0 mm 6 mps 770 mmHg 66%
    01:00 -2°C° 0 mm 5 mps 770 mmHg 69%
    02:00 -2°C° 0 mm 5 mps 770 mmHg 70%
    03:00 -2°C° 0 mm 5 mps 770 mmHg 70%
    04:00 -3°C° 0 mm 4 mps 770 mmHg 71%
    05:00 -3°C° 0 mm 4 mps 771 mmHg 71%
    06:00 -3°C° 0 mm 4 mps 771 mmHg 71%
    07:00 -3°C° 0 mm 4 mps 771 mmHg 71%
    08:00 -1°C° 0 mm 4 mps 771 mmHg 66%
    09:00 0°C° 0 mm 4 mps 772 mmHg 61%
    10:00 +1°C° 0 mm 5 mps 772 mmHg 55%
    11:00 +2°C° 0 mm 5 mps 772 mmHg 52%
    12:00 +2°C° 0 mm 5 mps 771 mmHg 49%
    13:00 +3°C° 0 mm 5 mps 771 mmHg 45%
    14:00 +3°C° 0 mm 5 mps 771 mmHg 47%
    15:00 +3°C° 0 mm 5 mps 771 mmHg 48%
    16:00 +3°C° 0 mm 5 mps 770 mmHg 49%
    17:00 +3°C° 0 mm 4 mps 771 mmHg 53%
    18:00 +1°C° 0 mm 4 mps 771 mmHg 56%
    19:00 +1°C° 0 mm 4 mps 772 mmHg 60%
    20:00 +1°C° 0 mm 3 mps 771 mmHg 61%
    21:00 +1°C° 0 mm 3 mps 771 mmHg 63%
    22:00 +1°C° 0 mm 3 mps 771 mmHg 64%
    23:00 +1°C° 0 mm 3 mps 771 mmHg 65%

    23 January, Thursday

    Time Temperature Precipitation Wind Pressure Humidity
    00:00 +1°C° 0 mm 3 mps 771 mmHg 66%
    01:00 +1°C° 0 mm 3 mps 771 mmHg 67%
    02:00 0°C° 0 mm 3 mps 771 mmHg 68%
    03:00 0°C° 0 mm 3 mps 771 mmHg 69%
    04:00 0°C° 0 mm 3 mps 771 mmHg 70%
    05:00 0°C° 0 mm 3 mps 771 mmHg 70%
    06:00 0°C° 0 mm 3 mps 771 mmHg 71%
    07:00 0°C° 0 mm 3 mps 772 mmHg 72%
    08:00 +1°C° 0 mm 3 mps 772 mmHg 67%
    09:00 +3°C° 0 mm 3 mps 772 mmHg 62%
    10:00 +4°C° 0 mm 3 mps 772 mmHg 57%
    11:00 +6°C° 0 mm 2 mps 772 mmHg 53%
    12:00 +7°C° 0 mm 2 mps 772 mmHg 50%
    13:00 +7°C° 0 mm 2 mps 771 mmHg 46%
    14:00 +7°C° 0 mm 2 mps 771 mmHg 47%
    15:00 +7°C° 0 mm 2 mps 771 mmHg 49%
    16:00 +7°C° 0 mm 2 mps 771 mmHg 50%
    17:00 +7°C° 0 mm 1 mps 771 mmHg 53%
    18:00 +6°C° 0 mm 1 mps 771 mmHg 56%
    19:00 +5°C° 0 mm 1 mps 771 mmHg 59%
    20:00 +4°C° 0 mm 1 mps 771 mmHg 61%
    21:00 +4°C° 0 mm 1 mps 771 mmHg 63%
    22:00 +3°C° 0 mm 0 mps 771 mmHg 65%
    23:00 +2°C° 0 mm 0 mps 770 mmHg 66%

    24 January, Friday

    Time Temperature Precipitation Wind Pressure Humidity
    00:00 +2°C° 0 mm 0 mps 770 mmHg 67%
    01:00 +2°C° 0 mm 0 mps 770 mmHg 69%
    02:00 +3°C° 0 mm 1 mps 770 mmHg 68%
    03:00 +2°C° 0 mm 1 mps 770 mmHg 68%
    04:00 +2°C° 0 mm 1 mps 769 mmHg 67%
    05:00 +2°C° 0 mm 1 mps 770 mmHg 67%
    06:00 +2°C° 0 mm 1 mps 770 mmHg 67%
    07:00 +2°C° 0 mm 1 mps 770 mmHg 66%
    08:00 +3°C° 0 mm 1 mps 770 mmHg 60%
    09:00 +5°C° 0 mm 1 mps 770 mmHg 54%
    10:00 +6°C° 0 mm 1 mps 770 mmHg 48%
    11:00 +7°C° 0 mm 2 mps 770 mmHg 45%
    12:00 +8°C° 0 mm 2 mps 769 mmHg 41%
    13:00 +10°C° 0 mm 2 mps 769 mmHg 38%
    14:00 +10°C° 0 mm 2 mps 768 mmHg 41%
    15:00 +11°C° 0 mm 1 mps 768 mmHg 45%
    16:00 +11°C° 0 mm 1 mps 768 mmHg 48%
    17:00 +10°C° 0 mm 1 mps 768 mmHg 52%
    18:00 +9°C° 0 mm 1 mps 767 mmHg 56%
    19:00 +7°C° 0 mm 1 mps 767 mmHg 60%
    20:00 +7°C° 0 mm 1 mps 767 mmHg 61%
    21:00 +6°C° 0 mm 2 mps 767 mmHg 62%
    22:00 +6°C° 0 mm 2 mps 767 mmHg 63%
    23:00 +6°C° 0 mm 2 mps 767 mmHg 66%
    Show more